TimeEET,TemperatureF,Dew PointF,Humidity,Sea Level PressureIn,VisibilityMPH,Wind Direction,Wind SpeedMPH,Gust SpeedMPH,PrecipitationIn,Events,Conditions,WindDirDegrees,DateUTC
12:50 AM,50.0,41.0,71,29.95,-9999.0,North,6.9,-,N/A,,Clear,360,2013-03-01 22:50:00
1:50 AM,48.2,41.0,76,29.95,-9999.0,North,6.9,-,N/A,,Clear,360,2013-03-01 23:50:00
2:50 AM,48.2,41.0,76,29.95,-9999.0,North,4.6,-,N/A,,Clear,360,2013-03-02 00:50:00
3:50 AM,46.4,41.0,81,29.95,-9999.0,North,8.1,-,N/A,,Clear,360,2013-03-02 01:50:00
4:50 AM,46.4,41.0,81,29.95,-9999.0,North,6.9,-,N/A,,Clear,360,2013-03-02 02:50:00
5:50 AM,46.4,41.0,81,29.95,-9999.0,North,5.8,-,N/A,,Clear,360,2013-03-02 03:50:00
6:20 AM,46.4,41.0,81,29.95,-9999.0,North,5.8,-,N/A,,Clear,360,2013-03-02 04:20:00
6:50 AM,46.4,41.0,81,29.95,-9999.0,Calm,Calm,-,N/A,,Clear,0,2013-03-02 04:50:00
7:20 AM,46.4,41.0,81,29.95,6.2,Calm,Calm,-,N/A,,Partly Cloudy,0,2013-03-02 05:20:00
7:50 AM,48.2,44.6,87,29.98,6.2,East,2.3,-,N/A,,Partly Cloudy,80,2013-03-02 05:50:00
8:20 AM,48.2,44.6,87,29.98,6.2,ESE,3.5,-,N/A,,Partly Cloudy,110,2013-03-02 06:20:00
8:50 AM,55.4,48.2,77,29.98,6.2,ESE,8.1,-,N/A,,Partly Cloudy,120,2013-03-02 06:50:00
9:20 AM,55.4,48.2,77,29.98,-9999.0,SE,9.2,-,N/A,,Clear,130,2013-03-02 07:20:00
9:50 AM,57.2,48.2,72,29.95,-9999.0,SE,11.5,-,N/A,,Clear,130,2013-03-02 07:50:00
10:20 AM,57.2,48.2,72,29.95,-9999.0,SSE,15.0,-,N/A,,Clear,150,2013-03-02 08:20:00
10:50 AM,59.0,46.4,63,29.98,6.2,SE,16.1,-,N/A,,Partly Cloudy,140,2013-03-02 08:50:00
11:20 AM,59.0,46.4,63,29.98,6.2,SE,15.0,-,N/A,,Partly Cloudy,140,2013-03-02 09:20:00
11:50 AM,59.0,50.0,72,29.95,6.2,SE,15.0,-,N/A,,Scattered Clouds,140,2013-03-02 09:50:00
12:20 PM,59.0,50.0,72,29.95,6.2,SSE,16.1,-,N/A,,Scattered Clouds,150,2013-03-02 10:20:00
12:50 PM,60.8,51.8,72,29.95,6.2,SSE,17.3,-,N/A,,Mostly Cloudy,150,2013-03-02 10:50:00
1:20 PM,60.8,51.8,72,29.95,6.2,SE,16.1,-,N/A,,Mostly Cloudy,140,2013-03-02 11:20:00
1:50 PM,59.0,51.8,77,29.92,6.2,SE,12.7,-,N/A,,Mostly Cloudy,140,2013-03-02 11:50:00
2:20 PM,59.0,51.8,77,29.92,6.2,SSE,12.7,-,N/A,,Mostly Cloudy,150,2013-03-02 12:20:00
2:50 PM,59.0,51.8,77,29.89,6.2,SSE,13.8,-,N/A,,Mostly Cloudy,150,2013-03-02 12:50:00
3:20 PM,59.0,51.8,77,29.89,6.2,SSE,12.7,-,N/A,,Mostly Cloudy,150,2013-03-02 13:20:00
3:50 PM,59.0,51.8,77,29.89,6.2,SSE,13.8,-,N/A,,Mostly Cloudy,150,2013-03-02 13:50:00
4:20 PM,59.0,51.8,77,29.89,6.2,SE,17.3,-,N/A,,Mostly Cloudy,140,2013-03-02 14:20:00
4:50 PM,59.0,50.0,72,29.89,6.2,SE,17.3,-,N/A,,Mostly Cloudy,140,2013-03-02 14:50:00
5:20 PM,59.0,50.0,72,29.89,6.2,SE,12.7,-,N/A,,Mostly Cloudy,140,2013-03-02 15:20:00
5:50 PM,57.2,50.0,77,29.92,6.2,SE,11.5,-,N/A,,Scattered Clouds,130,2013-03-02 15:50:00
6:20 PM,57.2,50.0,77,29.92,6.2,SSE,8.1,-,N/A,,Scattered Clouds,160,2013-03-02 16:20:00
6:50 PM,57.2,50.0,77,29.92,6.2,SSE,8.1,-,N/A,,Scattered Clouds,160,2013-03-02 16:50:00
7:20 PM,57.2,50.0,77,29.92,6.2,SE,11.5,-,N/A,,Scattered Clouds,130,2013-03-02 17:20:00
7:50 PM,55.4,50.0,82,29.92,6.2,SE,11.5,-,N/A,,Scattered Clouds,130,2013-03-02 17:50:00
8:50 PM,55.4,50.0,82,29.92,6.2,SE,13.8,-,N/A,,Scattered Clouds,130,2013-03-02 18:50:00
9:50 PM,57.2,50.0,77,29.92,6.2,SE,15.0,-,N/A,,Mostly Cloudy,130,2013-03-02 19:50:00
10:50 PM,57.2,50.0,77,29.89,6.2,SE,12.7,-,N/A,,Mostly Cloudy,130,2013-03-02 20:50:00
11:50 PM,55.4,50.0,82,29.89,6.2,SE,13.8,-,N/A,,Mostly Cloudy,130,2013-03-02 21:50:00